MST,Max TemperatureF,Mean TemperatureF,Min TemperatureF,Max Dew PointF,MeanDew PointF,Min DewpointF,Max Humidity, Mean Humidity, Min Humidity, Max Sea Level PressureIn, Mean Sea Level PressureIn, Min Sea Level PressureIn, Max VisibilityMiles, Mean VisibilityMiles, Min VisibilityMiles, Max Wind SpeedMPH, Mean Wind SpeedMPH, Max Gust SpeedMPH,PrecipitationIn, CloudCover, Events, WindDirDegrees
2011-12-1,33,22,12,30,21,9,93,78,60,30.51,30.39,30.05,10,8,0,28,16,33,0.01,4,Snow,1
2011-12-2,42,24,5,27,18,3,92,76,53,30.37,30.02,29.83,10,10,10,22,6,26,0.00,0,,186
2011-12-3,32,28,23,28,22,19,87,74,60,30.12,30.05,29.97,10,8,1,25,14,32,0.00,8,Snow,2
2011-12-4,35,20,6,19,12,3,86,72,51,30.22,30.10,30.04,10,10,10,20,7,26,0.00,3,,286
2011-12-5,21,13,5,5,4,0,85,65,46,30.50,30.43,30.36,10,10,10,22,12,31,0.00,0,,342
2011-12-6,30,13,-4,10,0,-9,85,66,34,30.31,30.13,30.00,10,10,10,14,4,18,0.03,0,,248
2011-12-7,46,34,19,18,16,13,75,51,32,30.15,30.08,30.02,10,10,10,29,14,33,0.00,0,,310
2011-12-8,31,24,17,29,21,14,90,84,78,30.18,30.13,30.08,10,8,0,15,5,,0.01,7,Snow,47
2011-12-9,37,24,11,25,18,9,94,79,50,30.32,30.25,30.18,10,9,0,9,2,,0.00,4,Fog,266
2011-12-10,48,30,12,26,17,9,89,68,30,30.33,30.28,30.18,10,10,7,12,6,,0.00,0,,252
2011-12-11,49,28,7,26,17,4,90,72,34,30.09,29.95,29.84,10,10,7,7,4,,0.00,0,,240
2011-12-12,40,27,14,25,20,11,93,77,53,30.16,30.06,29.93,10,10,5,9,5,,0.00,1,,23
2011-12-13,31,27,23,31,26,22,96,95,93,30.15,30.04,29.92,10,3,0,7,5,,0.00,8,Fog,120
2011-12-14,47,36,24,31,26,22,96,76,36,29.97,29.81,29.74,10,7,0,23,7,32,0.00,4,Fog,286
2011-12-15,42,32,23,23,18,12,82,58,28,30.25,30.19,30.09,10,10,10,22,9,22,0.00,0,,289
2011-12-16,45,27,9,23,17,6,90,69,39,30.33,30.27,30.21,10,10,10,20,4,23,0.00,0,,291
2011-12-17,54,35,16,24,17,12,88,63,25,30.36,30.31,30.23,10,10,10,12,7,,0.00,0,,255
2011-12-18,60,37,14,24,16,11,86,61,21,30.15,29.96,29.83,10,10,10,13,6,,0.00,0,,256
2011-12-19,39,34,28,28,21,12,90,65,41,30.22,30.12,29.89,10,10,5,25,17,36,0.00,3,,27
2011-12-20,47,26,6,18,13,3,87,66,25,30.17,29.92,29.71,10,10,10,15,5,16,0.00,0,,251
2011-12-21,41,30,18,31,24,14,92,69,51,29.99,29.79,29.71,10,10,4,14,8,18,0.00,4,Snow,329
2011-12-22,30,16,3,26,13,-1,86,74,50,30.41,30.32,30.10,10,10,10,18,11,25,0.00,2,,334
2011-12-23,42,24,5,17,10,1,83,65,34,30.32,30.26,30.22,10,10,10,17,10,23,0.00,0,,269
2011-12-24,50,30,10,18,12,7,87,58,22,30.40,30.34,30.29,10,10,10,17,9,25,0.00,0,,268
2011-12-25,49,36,24,20,17,14,67,52,31,30.49,30.40,30.25,10,10,10,18,6,,0.00,0,,254
2011-12-26,53,35,17,22,16,12,83,53,20,30.12,29.99,29.92,10,10,10,28,10,36,0.00,0,,296
2011-12-27,50,31,12,19,15,9,86,60,25,30.14,30.06,29.94,10,10,10,15,9,16,0.00,0,,252
2011-12-28,57,42,27,25,21,18,69,48,23,30.00,29.94,29.84,10,10,10,29,12,31,0.00,0,,279
2011-12-29,67,45,23,35,28,21,89,59,26,29.86,29.72,29.54,10,10,7,37,12,55,0.00,2,Rain,282
2011-12-30,54,38,21,24,20,17,84,55,27,29.93,29.85,29.72,10,10,10,14,7,9,0.00,0,,239
2011-12-31,50,35,20,32,24,15,92,70,25,30.22,29.74,29.46,10,9,0,39,15,51,0.02,3,Rain-Snow,293